Weather reports worldwide

Advertisment
Ibiza/Es Codola, Spain (8373): temperature & dewpoint: 26.09.2020 00:00:00 - 02.10.2020 00:00:00 (CEST)Ibiza/Es Codola, Spain (8373): wind speed: 26.09.2020 00:00:00 - 02.10.2020 00:00:00 (CEST)Ibiza/Es Codola, Spain (8373): wind direction: 26.09.2020 00:00:00 - 02.10.2020 00:00:00 (CEST)Ibiza/Es Codola, Spain (8373): reduced air pressure: 26.09.2020 00:00:00 - 02.10.2020 00:00:00 (CEST)Ibiza/Es Codola, Spain (8373): visibility: 26.09.2020 00:00:00 - 02.10.2020 00:00:00 (CEST)
Date & Time tt [°C] td [°C] ff [km/h] ff [kn] dd ppp [hPa] vv [km]
02.10.2020 00:00:00 22,7 20,2 16 9 WSW 1005,6 10
01.10.2020 23:00:00 23,0 20,3 21 11 SW 1006,1 15
01.10.2020 22:00:00 23,0 20,5 21 11 SW 1006,3 10
01.10.2020 21:00:00 23,2 20,5 21 11 SW 1006,7 10
01.10.2020 20:00:00 23,4 20,9 18 10 SW 1006,6 10
01.10.2020 19:00:00 23,7 20,4 21 11 SW 1006,6 10
01.10.2020 18:00:00 24,4 20,9 21 11 SW 1007,0 10
01.10.2020 17:00:00 25,0 20,6 24 13 SW 1007,6 15
01.10.2020 16:00:00 25,6 20,9 21 11 SSW 1007,8 10
01.10.2020 15:00:00 25,5 21,1 21 11 SW 1008,3 10
01.10.2020 14:00:00 25,2 20,5 21 11 SW 1009,1 10
01.10.2020 13:00:00 24,7 20,0 26 14 WSW 1009,8 10
01.10.2020 12:00:00 24,5 20,1 26 14 SW 1009,9 10
01.10.2020 11:00:00 23,8 20,1 24 13 SW 1010,2 10
01.10.2020 10:00:00 23,4 19,5 24 13 SW 1010,3 10
01.10.2020 09:00:00 22,4 18,8 22 12 SW 1010,2 10
01.10.2020 08:00:00 22,1 18,1 21 11 SW 1010,0 10
01.10.2020 07:00:00 22,1 18,3 16 9 SW 1010,1 10
01.10.2020 06:00:00 22,0 18,4 18 10 SW 1010,6 10
01.10.2020 05:00:00 22,2 18,6 18 10 SW 1011,0 10
01.10.2020 04:00:00 22,1 18,6 13 7 SW 1011,4 10
01.10.2020 03:00:00 22,2 18,8 15 8 SSW 1012,2 10
01.10.2020 02:00:00 22,0 18,6 13 7 S 1012,6 10
01.10.2020 01:00:00 21,9 18,5 11 6 S 1013,4 10
01.10.2020 00:00:00 21,7 18,5 9 5 S 1013,7 10
30.09.2020 23:00:00 21,6 18,2 11 6 S 1013,9 10
30.09.2020 22:00:00 21,5 17,9 8 4 S 1014,0 10
30.09.2020 21:00:00 22,0 17,8 8 4 SSW 1014,1 10
30.09.2020 20:00:00 22,2 17,6 9 5 S 1014,0 30
30.09.2020 19:00:00 22,7 17,4 9 5 SSW 1014,1 10
30.09.2020 18:00:00 23,5 17,5 11 6 S 1014,2 10
30.09.2020 17:00:00 24,2 17,2 8 4 - 1014,7 10
30.09.2020 16:00:00 24,0 17,0 11 6 SE 1014,9 10
30.09.2020 15:00:00 24,4 16,6 11 6 E 1015,2 10
30.09.2020 14:00:00 24,7 16,7 13 7 E 1015,8 10
30.09.2020 13:00:00 24,5 16,8 11 6 E 1016,3 10
30.09.2020 12:00:00 24,1 16,7 9 5 E 1016,7 10
30.09.2020 11:00:00 23,5 16,8 5 3 - 1016,9 10
30.09.2020 10:00:00 22,2 17,0 5 3 ENE 1016,7 10
30.09.2020 09:00:00 18,7 16,7 4 2 - 1016,5 10
30.09.2020 08:00:00 15,7 14,6 0 0 N 1016,2 10
30.09.2020 07:00:00 15,8 15,0 0 0 N 1016,0 10
30.09.2020 06:00:00 15,6 14,5 4 2 N 1015,6 10
30.09.2020 05:00:00 15,5 14,4 2 1 E 1015,9 25
30.09.2020 04:00:00 16,5 15,0 5 3 NW 1016,3 10
30.09.2020 03:00:00 16,1 14,6 2 1 - 1016,7 10
30.09.2020 02:00:00 16,2 14,4 4 2 NW 1016,9 25
30.09.2020 01:00:00 17,1 15,0 4 2 NNW 1017,3 10
30.09.2020 00:00:00 18,2 15,4 9 5 N 1017,5 10
29.09.2020 23:00:00 18,9 15,5 4 2 - 1017,4 10
29.09.2020 22:00:00 21,4 16,1 11 6 E 1017,3 10
29.09.2020 21:00:00 20,6 16,2 8 4 E 1017,2 10
29.09.2020 20:00:00 20,7 15,7 8 4 ENE 1016,8 10
29.09.2020 19:00:00 22,2 15,5 11 6 E 1017,1 10
29.09.2020 18:00:00 23,1 15,2 13 7 E 1016,8 10
29.09.2020 17:00:00 23,7 15,2 15 8 E 1017,1 10
29.09.2020 16:00:00 24,1 14,8 15 8 E 1017,4 10
29.09.2020 15:00:00 24,0 15,1 15 8 E 1018,0 10
29.09.2020 14:00:00 24,5 15,1 16 9 E 1018,7 30
29.09.2020 13:00:00 23,5 14,5 13 7 E 1019,3 10
29.09.2020 12:00:00 23,4 14,5 13 7 E 1019,3 10
29.09.2020 11:00:00 22,5 14,4 11 6 ENE 1019,3 30
29.09.2020 10:00:00 21,5 14,6 5 3 N 1019,4 10
29.09.2020 09:00:00 17,1 13,2 4 2 NE 1018,7 10
29.09.2020 08:00:00 14,1 11,8 2 1 - 1018,2 10
29.09.2020 07:00:00 14,0 11,9 4 2 - 1018,2 10
29.09.2020 06:00:00 12,8 10,9 2 1 - 1018,3 10
29.09.2020 05:00:00 13,8 12,5 0 0 N 1018,1 10
29.09.2020 04:00:00 14,6 12,5 4 2 N 1018,2 10
29.09.2020 03:00:00 14,6 12,2 4 2 WNW 1018,6 10
29.09.2020 02:00:00 14,6 11,8 2 1 N 1018,8 10
29.09.2020 01:00:00 14,5 11,1 2 1 - 1018,9 10
29.09.2020 00:00:00 15,4 11,8 4 2 - 1018,9 10
28.09.2020 23:00:00 16,2 12,2 2 1 - 1018,5 10
28.09.2020 22:00:00 16,6 11,9 8 4 NNW 1017,9 10
28.09.2020 21:00:00 17,7 12,4 5 3 N 1017,2 10
28.09.2020 20:00:00 19,6 12,6 4 2 S 1016,7 30
28.09.2020 19:00:00 21,7 12,8 9 5 SSW 1016,2 10
28.09.2020 18:00:00 22,2 12,2 16 9 SW 1015,7 10
28.09.2020 17:00:00 23,0 12,3 16 9 SSW 1015,8 10
28.09.2020 16:00:00 23,8 11,8 16 9 SW 1016,0 10
28.09.2020 15:00:00 23,7 10,0 13 7 W 1016,4 10
28.09.2020 14:00:00 24,2 12,1 13 7 SSW 1016,6 10
28.09.2020 13:00:00 22,9 10,0 11 6 WNW 1016,7 10
28.09.2020 12:00:00 22,4 10,8 11 6 NW 1016,4 10
28.09.2020 11:00:00 22,0 12,1 11 6 N 1016,5 25
28.09.2020 10:00:00 20,9 11,2 0 0 N 1016,0 10
28.09.2020 09:00:00 18,2 11,4 4 2 - 1015,4 10
28.09.2020 08:00:00 17,1 9,6 4 2 NE 1014,7 45
28.09.2020 07:00:00 15,6 10,6 4 2 ENE 1014,1 10
28.09.2020 06:00:00 16,2 12,6 5 3 NE 1013,6 10
28.09.2020 05:00:00 17,7 13,4 9 5 N 1013,5 45
28.09.2020 04:00:00 17,2 14,5 11 6 N 1013,3 10
28.09.2020 03:00:00 17,7 15,4 8 4 NNW 1013,5 10
28.09.2020 02:00:00 17,7 13,6 8 4 N 1014,1 30
28.09.2020 01:00:00 17,2 12,5 4 2 NNW 1014,5 10
28.09.2020 00:00:00 17,2 12,5 9 5 N 1014,6 10
27.09.2020 23:00:00 16,7 11,2 5 3 N 1014,6 35
27.09.2020 22:00:00 19,5 11,5 11 6 S 1014,2 10
27.09.2020 21:00:00 18,7 10,5 5 3 S 1013,6 10
27.09.2020 20:00:00 19,5 10,7 11 6 S 1013,2 15
27.09.2020 19:00:00 20,9 10,7 13 7 S 1012,4 10
27.09.2020 18:00:00 21,1 10,3 15 8 SSE 1012,8 10
27.09.2020 17:00:00 21,9 10,5 16 9 ESE 1012,7 15
27.09.2020 16:00:00 20,7 10,1 11 6 SE 1012,9 10
27.09.2020 15:00:00 21,8 10,5 15 8 ESE 1012,8 10
27.09.2020 14:00:00 22,2 12,2 18 10 ESE 1012,8 15
27.09.2020 13:00:00 21,5 12,4 22 12 E 1012,4 10
27.09.2020 12:00:00 21,4 9,9 21 11 NE 1012,2 10
27.09.2020 11:00:00 21,2 8,0 29 16 NNE 1011,0 10
27.09.2020 10:00:00 21,0 8,9 22 12 NNE 1009,8 10
27.09.2020 09:00:00 20,1 9,4 26 14 N 1008,8 10
27.09.2020 08:00:00 20,0 15,6 15 8 WNW 1007,9 18
27.09.2020 07:00:00 22,5 12,4 16 9 WNW 1007,1 10
27.09.2020 06:00:00 22,9 12,2 18 10 WNW 1007,0 10
27.09.2020 05:00:00 23,0 10,8 22 12 W 1006,6 10
27.09.2020 04:00:00 23,4 10,4 31 17 WNW 1006,9 10
27.09.2020 03:00:00 23,2 10,3 34 18 W 1007,4 10
27.09.2020 02:00:00 23,2 9,5 34 18 W 1007,9 10
27.09.2020 01:00:00 23,2 9,6 31 17 W 1009,1 10
27.09.2020 00:00:00 22,9 13,9 31 17 SW 1009,7 10
26.09.2020 23:00:00 21,9 12,4 28 15 SW 1011,1 10
26.09.2020 22:00:00 21,4 11,1 22 12 SW 1011,7 10
26.09.2020 21:00:00 21,1 8,4 22 12 SW 1012,2 10
26.09.2020 20:00:00 20,7 8,7 15 8 SW 1012,7 10
26.09.2020 19:00:00 21,2 7,7 13 7 SW 1012,9 10
26.09.2020 18:00:00 22,0 6,6 9 5 WSW 1013,4 10
26.09.2020 17:00:00 22,9 7,3 18 10 W 1013,8 55
26.09.2020 16:00:00 22,5 7,7 21 11 WNW 1014,6 10
26.09.2020 15:00:00 22,7 6,9 22 12 W 1015,1 10
26.09.2020 14:00:00 22,5 7,1 22 12 NW 1015,9 55
26.09.2020 13:00:00 22,2 7,6 22 12 WNW 1016,4 10
26.09.2020 12:00:00 22,1 7,2 18 10 WNW 1017,0 10
26.09.2020 11:00:00 21,8 7,5 22 12 NW 1017,2 10
26.09.2020 10:00:00 20,7 7,3 21 11 NNW 1016,9 10
26.09.2020 09:00:00 19,5 5,9 29 16 NNW 1016,7 10
26.09.2020 08:00:00 18,5 6,7 18 10 NNW 1016,5 30
26.09.2020 07:00:00 19,0 7,0 16 9 NW 1016,5 10
26.09.2020 06:00:00 19,1 7,2 21 11 NNW 1016,7 10
26.09.2020 05:00:00 19,2 6,6 28 15 N 1016,7 10
26.09.2020 04:00:00 19,7 7,2 22 12 NNW 1017,1 10
26.09.2020 03:00:00 20,1 7,0 21 11 NNW - 10
26.09.2020 02:00:00 20,4 7,0 15 8 NNW - 10
26.09.2020 01:00:00 20,6 8,6 21 11 NNW 1018,6 10
26.09.2020 00:00:00 21,0 9,4 15 8 NNW 1018,7 10

tt = temperature
td = dewpoint
ff = wind speed
dd = wind direction
ppp = reduced air pressure
vv = visibility

Next stations